{"data":{"norad_id":67741,"intl_designator":"2026-026W","name":"STARLINK-36740","alt_names":[],"object_type":"PAYLOAD","status":"ACTIVE","operator":null,"country":"US","launch_date":"2026-02-11","launch_site_code":"AFWTR","launch_vehicle":null,"mission":null,"orbit_class":"UNKNOWN","rcs_meters":null,"size_class":null,"mass_kg":null,"dimensions":null,"purposes":["comms"],"wikipedia_slug":null,"has_3d_model":false,"image_url":null,"decayed_at":null,"tle_current":{"epoch":"2026-09-19T10:44:32.531136Z","epoch_age_seconds":157366,"freshness":"FRESH","line1":"1 67741U 26026W   26262.44759874  .00015681  00000+0  48666-3 0  9990","line2":"2 67741  97.2859 314.3600 0000847  96.7102 263.4237 15.33470484 33820","mean_motion":15.33470484,"eccentricity":8.47e-5,"inclination_deg":97.2859,"raan_deg":314.36,"arg_perigee_deg":96.7102,"mean_anomaly_deg":263.4237,"bstar":0.00048666,"rev_number":3382,"period_min":93.904644075301,"perigee_km":464.88769978499,"apogee_km":466.0470063624,"semimajor_km":6843.6043530737,"source":"CELESTRAK","updated_at":"2026-09-20T09:00:43.660600Z"}}}